Regional Weather Roundup
Issued by NWS

Home | Current Version | Previous Version | Graphics & Text | Print | Product List | Glossary On
Versions: 1 2 3 4 5 6 7 8 9 10 11 12 13 14 15 16 17 18 19 20 21 22 23 24 25 26 27 28 29 30 31 32 33 34 35 36 37 38 39 40 41 42 43 44 45 46 47 48 49 50
625
ASUS43 KBIS 301910
RWRND

NORTH DAKOTA REGIONAL WEATHER ROUNDUP
NATIONAL WEATHER SERVICE BISMARCK ND
200 PM CDT MON MAY 30 2016

NOTE: "FAIR" INDICATES FEW OR NO CLOUDS BELOW 12,000 FEET WITH NO
SIGNIFICANT WEATHER AND/OR OBSTRUCTIONS TO VISIBILITY.


NDZ001>003-009>011-017-302000-
NORTHWEST NORTH DAKOTA

CITY           SKY/WX    TMP DP  RH WIND       PRES   REMARKS
WILLISTON      LGT RAIN  58  52  80 N5        29.94S
MINOT          CLOUDY    72  53  51 W16       29.88S
MINOT AFB      CLOUDY    72  56  57 W20       29.87F
$$

NDZ018>021-031>035-040>046-302000-
SOUTHWEST NORTH DAKOTA

CITY           SKY/WX    TMP DP  RH WIND       PRES   REMARKS
BISMARCK       CLOUDY    76  57  51 S9        29.84F
DICKINSON      LGT RAIN  55  53  93 N9        29.89F
GARRISON         N/A     62  53  72 N21       29.85F
HETTINGER ARPT PTSUNNY   60  54  80 N20       29.86F
$$

NDZ004>008-012>016-024-026-027-054-302000-
NORTHEAST NORTH DAKOTA

CITY           SKY/WX    TMP DP  RH WIND       PRES   REMARKS
GRAND FORKS    PTSUNNY   80  52  37 SE6       29.86F
GRND FRKS AFB  MOSUNNY   79  52  38 S2        29.86F
DEVILS LAKE    CLOUDY    76  52  43 VRB3      29.86F
$$

NDZ022-023-025-028>030-036>039-047>053-302000-
SOUTHEAST NORTH DAKOTA

CITY           SKY/WX    TMP DP  RH WIND       PRES   REMARKS
FARGO          MOSUNNY   86  50  28 S9        29.86F
JAMESTOWN      SUNNY     82  51  34 SE13      29.83F
$$





USA.gov is the U.S. government's official web portal to all federal, state and local government web resources and services.